Meteo pe oră la Almaty

Astăzi, 24 Ianuarie, Duminică

Timp Temperatura Precipitaţii Vânt Presiune Umiditate
00:00 -8°C° 0.1 mm 2 m/s 698 mmHg 85%
01:00 -7°C° 0.1 mm 2 m/s 698 mmHg 86%
02:00 -8°C° 0.1 mm 3 m/s 698 mmHg 86%
03:00 -7°C° 0 mm 1 m/s 698 mmHg 78%
04:00 -8°C° 0 mm 2 m/s 698 mmHg 76%
05:00 -8°C° 0 mm 2 m/s 699 mmHg 75%
06:00 -8°C° 0 mm 2 m/s 699 mmHg 74%
07:00 -8°C° 0 mm 2 m/s 700 mmHg 73%
08:00 -8°C° 0 mm 2 m/s 700 mmHg 73%
09:00 -7°C° 0 mm 2 m/s 700 mmHg 74%
10:00 -3°C° 0 mm 1 m/s 700 mmHg 75%
11:00 -2°C° 0 mm 1 m/s 700 mmHg 77%
12:00 -2°C° 0 mm 1 m/s 699 mmHg 78%
13:00 -2°C° 0 mm 1 m/s 699 mmHg 79%
14:00 -2°C° 0 mm 1 m/s 698 mmHg 80%
15:00 -3°C° 0 mm 1 m/s 698 mmHg 79%
16:00 -4°C° 0 mm 1 m/s 698 mmHg 77%
17:00 -7°C° 0 mm 1 m/s 698 mmHg 76%
18:00 -8°C° 0 mm 2 m/s 698 mmHg 73%
19:00 -8°C° 0 mm 2 m/s 698 mmHg 70%
20:00 -8°C° 0 mm 2 m/s 698 mmHg 67%
21:00 -8°C° 0 mm 2 m/s 698 mmHg 68%
22:00 -7°C° 0 mm 1 m/s 698 mmHg 70%
23:00 -7°C° 0 mm 1 m/s 698 mmHg 72%

Mâine, 25 Ianuarie, Luni

Timp Temperatura Precipitaţii Vânt Presiune Umiditate
00:00 -6°C° 0 mm 1 m/s 698 mmHg 75%
01:00 -6°C° 0 mm 1 m/s 697 mmHg 78%
02:00 -6°C° 0 mm 1 m/s 697 mmHg 81%
03:00 -6°C° 0 mm 1 m/s 697 mmHg 82%
04:00 -6°C° 0 mm 1 m/s 697 mmHg 83%
05:00 -6°C° 0 mm 1 m/s 696 mmHg 84%
06:00 -6°C° 0 mm 1 m/s 696 mmHg 84%
07:00 -6°C° 0 mm 1 m/s 696 mmHg 85%
08:00 -6°C° 0 mm 1 m/s 696 mmHg 85%
09:00 -4°C° 0 mm 1 m/s 696 mmHg 84%
10:00 -3°C° 0 mm 1 m/s 696 mmHg 84%
11:00 -2°C° 0 mm 1 m/s 695 mmHg 84%
12:00 -2°C° 0 mm 1 m/s 695 mmHg 85%
13:00 -2°C° 0 mm 1 m/s 694 mmHg 86%
14:00 -1°C° 0 mm 1 m/s 694 mmHg 87%
15:00 -3°C° 0 mm 1 m/s 694 mmHg 87%
16:00 -4°C° 0 mm 1 m/s 694 mmHg 88%
17:00 -6°C° 0 mm 1 m/s 694 mmHg 89%
18:00 -6°C° 0 mm 1 m/s 694 mmHg 86%
19:00 -7°C° 0 mm 1 m/s 694 mmHg 83%
20:00 -7°C° 0 mm 0 m/s 694 mmHg 80%
21:00 -7°C° 0 mm 1 m/s 694 mmHg 79%
22:00 -7°C° 0 mm 1 m/s 694 mmHg 78%
23:00 -7°C° 0 mm 1 m/s 694 mmHg 77%

Poimâine, 26 Ianuarie, Marţi

Timp Temperatura Precipitaţii Vânt Presiune Umiditate
00:00 -8°C° 0 mm 1 m/s 694 mmHg 76%
01:00 -8°C° 0 mm 1 m/s 694 mmHg 75%
02:00 -8°C° 0 mm 1 m/s 694 mmHg 74%
03:00 -8°C° 0 mm 1 m/s 694 mmHg 73%
04:00 -8°C° 0 mm 1 m/s 694 mmHg 73%
05:00 -8°C° 0 mm 1 m/s 694 mmHg 72%
06:00 -8°C° 0 mm 1 m/s 694 mmHg 72%
07:00 -8°C° 0 mm 1 m/s 695 mmHg 72%
08:00 -7°C° 0 mm 1 m/s 695 mmHg 72%
09:00 -6°C° 0 mm 1 m/s 695 mmHg 73%
10:00 -4°C° 0 mm 1 m/s 695 mmHg 74%
11:00 -2°C° 0 mm 1 m/s 695 mmHg 75%
12:00 -2°C° 0 mm 1 m/s 695 mmHg 77%
13:00 -2°C° 0 mm 1 m/s 694 mmHg 79%
14:00 -2°C° 0 mm 1 m/s 694 mmHg 82%
15:00 -3°C° 0 mm 1 m/s 694 mmHg 83%
16:00 -4°C° 0 mm 1 m/s 694 mmHg 84%
17:00 -7°C° 0 mm 0 m/s 694 mmHg 85%
18:00 -7°C° 0 mm 0 m/s 694 mmHg 82%
19:00 -7°C° 0 mm 1 m/s 694 mmHg 78%
20:00 -7°C° 0 mm 1 m/s 695 mmHg 74%
21:00 -7°C° 0 mm 1 m/s 695 mmHg 73%
22:00 -8°C° 0 mm 1 m/s 695 mmHg 71%
23:00 -8°C° 0 mm 1 m/s 695 mmHg 70%

27 Ianuarie, Miercuri

Timp Temperatura Precipitaţii Vânt Presiune Umiditate
00:00 -8°C° 0 mm 1 m/s 695 mmHg 69%
01:00 -8°C° 0 mm 1 m/s 695 mmHg 69%
02:00 -8°C° 0 mm 1 m/s 695 mmHg 68%
03:00 -8°C° 0 mm 1 m/s 695 mmHg 67%
04:00 -8°C° 0 mm 1 m/s 695 mmHg 67%
05:00 -8°C° 0 mm 1 m/s 695 mmHg 66%
06:00 -8°C° 0 mm 1 m/s 695 mmHg 66%
07:00 -8°C° 0 mm 1 m/s 695 mmHg 66%
08:00 -8°C° 0 mm 1 m/s 695 mmHg 67%
09:00 -6°C° 0 mm 1 m/s 695 mmHg 68%
10:00 -4°C° 0 mm 1 m/s 695 mmHg 70%
11:00 -3°C° 0 mm 1 m/s 695 mmHg 72%
12:00 -2°C° 0 mm 1 m/s 694 mmHg 74%
13:00 -2°C° 0 mm 1 m/s 694 mmHg 76%
14:00 -1°C° 0 mm 1 m/s 694 mmHg 78%
15:00 -3°C° 0 mm 1 m/s 694 mmHg 80%
16:00 -4°C° 0 mm 1 m/s 694 mmHg 81%
17:00 -7°C° 0 mm 0 m/s 694 mmHg 82%
18:00 -7°C° 0 mm 1 m/s 694 mmHg 79%
19:00 -7°C° 0 mm 1 m/s 695 mmHg 76%
20:00 -7°C° 0 mm 1 m/s 695 mmHg 73%
21:00 -7°C° 0 mm 1 m/s 695 mmHg 71%
22:00 -7°C° 0 mm 1 m/s 695 mmHg 69%
23:00 -7°C° 0 mm 1 m/s 695 mmHg 67%

28 Ianuarie, Joi

Timp Temperatura Precipitaţii Vânt Presiune Umiditate
00:00 -7°C° 0 mm 1 m/s 695 mmHg 66%
01:00 -7°C° 0 mm 1 m/s 695 mmHg 65%
02:00 -8°C° 0 mm 1 m/s 695 mmHg 64%
03:00 -8°C° 0 mm 1 m/s 695 mmHg 64%
04:00 -8°C° 0 mm 1 m/s 695 mmHg 63%
05:00 -8°C° 0 mm 1 m/s 695 mmHg 63%
06:00 -8°C° 0 mm 1 m/s 695 mmHg 64%
07:00 -7°C° 0 mm 1 m/s 695 mmHg 64%
08:00 -7°C° 0 mm 1 m/s 695 mmHg 64%
09:00 -6°C° 0 mm 1 m/s 695 mmHg 66%
10:00 -3°C° 0 mm 1 m/s 695 mmHg 68%
11:00 -2°C° 0 mm 1 m/s 695 mmHg 70%
12:00 -2°C° 0 mm 1 m/s 694 mmHg 72%
13:00 -1°C° 0 mm 1 m/s 694 mmHg 74%
14:00 -1°C° 0 mm 1 m/s 694 mmHg 77%
15:00 -3°C° 0 mm 1 m/s 694 mmHg 78%
16:00 -4°C° 0 mm 1 m/s 694 mmHg 79%
17:00 -6°C° 0 mm 0 m/s 694 mmHg 80%
18:00 -7°C° 0 mm 1 m/s 694 mmHg 76%
19:00 -7°C° 0 mm 1 m/s 694 mmHg 72%
20:00 -7°C° 0 mm 1 m/s 694 mmHg 68%
21:00 -7°C° 0 mm 1 m/s 694 mmHg 66%
22:00 -7°C° 0 mm 1 m/s 694 mmHg 63%
23:00 -7°C° 0 mm 1 m/s 694 mmHg 61%

29 Ianuarie, Vineri

Timp Temperatura Precipitaţii Vânt Presiune Umiditate
Arată mai mult

Formular de consimțământ

Meteoprog și furnizorii noștri de servicii pot stoca și accesa date personale, precum cookies, identificatori de dispozitiv sau alte tehnologii similare pe dispozitivul dumneavoastră și procesa astfel de date pentru a personaliza conținutul și reclamele, dar și pentru a oferi caracteristici de social media și pentru a analiza traficul.

  • Stocarea și/sau accesarea informațiilor pe dispozitivul dumneavoastră

    Cookies, identificatori de dispozitiv sau alte informații pot fi stocate sau accesate pe dispozitiv în scopurile indicate mai sus.

  • Reclame și conținut personalizat, evaluarea reclamelor și a conținutului, informații despre audiențe și dezvoltarea produselor

    Reclamele și conținutul pot fi personalizate pe baza unui profil. Pot fi adăugate date suplimentare pentru a personaliza mai bine reclamele și conținutul. Performanța reclamelor și conținutului poate fi măsurată. Pot fi obținute informații despre utilizatorii care au văzut reclamele și conținutul. Aceste date pot fi utilizate pentru a dezvolta sau îmbunătăți experiența utilizatorilor, sistemele și software-ul.

Dând clic pe ‘Sunt de acord’, permiteți utilizarea cookie-urilor menționate, a identificatorilor de dispozitiv, balizelor web sau altor tehnologii similare. Setările pot fi modificate din browser-ul dispozitivului dumneavoastră.

În anumite scopuri, interesele legitime pot prima asupra consimțământului. Puteți citi mai multe informații în acest sens în Politica privind Confidențialitatea Datelor și Cookie.